Temp
48 48 49 49 49 48 48 48 49 49 48 47 48 48 48 47 47 47 47 46 46 46 46 46 46 45 43 42 42 42 41 41 40 41 42 41 40 39 38 38 37 36 35 34 33 33 33 33 34 35 36 36 35 34 33 32 32 34 36 36 35 35 35 37 36 35 34 34 33
48 48 49 50 50 49 48 48 48 48 48 47 48 48 48 48 48 48 48 47 48 47 47 46 45 44 43 42 42 42 42 41 40 41 41 40 39 38 37 37 36 36 35 34 33 33 33 33 34 35 35 34 34 33 32 31 32 34 35 35 34 34 34 36 35 34 33 32 32
49 49 49 49 49 49 48 48 47 47 47 46 47 47 47 47 48 48 48 48 48 47 47 46 45 44 43 42 42 42 42 41 41 40 40 39 37 36 36 35 35 35 35 33 32 32 32 32 35 37 36 34 33 33 32 31 32 34 34 33 32 33 35 36 33 32 32 32 32
49 49 49 49 49 49 48 48 47 47 46 46 46 46 46 47 47 48 48 47 47 47 47 47 45 44 43 42 42 41 42 43 41 41 40 39 37 36 35 34 34 34 33 32 31 31 31 32 34 35 35 32 32 32 32 31 32 32 32 31 31 32 34 34 32 32 32 32 31
48 48 49 49 48 48 48 48 47 47 46 46 45 45 45 45 46 46 46 47 47 47 47 46 44 43 43 42 41 40 40 42 43 42 40 39 37 36 35 35 35 34 33 32 31 31 31 32 33 33 32 31 32 31 29 29 30 30 30 30 31 31 32 33 32 32 32 32 30
47 47 48 49 48 48 48 48 47 46 46 45 45 45 45 46 46 46 46 47 47 46 45 45 44 43 43 41 40 39 39 39 41 40 39 38 36 35 34 34 34 33 32 31 31 30 30 32 33 32 30 30 28 27 26 27 29 30 30 30 29 29 30 30 30 31 31 32 30
45 46 46 47 48 48 48 48 48 48 47 46 45 45 45 46 46 46 46 47 47 45 45 46 45 44 43 41 40 39 39 38 39 38 38 37 36 35 34 33 33 32 32 31 30 30 30 31 33 33 32 32 29 26 25 27 29 30 30 29 28 27 27 28 28 29 30 31 30
43 43 44 45 46 47 47 48 48 48 47 47 46 46 46 46 46 46 46 46 46 45 45 45 44 44 43 41 41 40 39 38 38 38 37 37 35 34 33 32 32 31 31 30 30 30 30 31 33 33 32 32 30 27 25 26 28 30 30 28 27 25 24 24 26 28 30 30 30
41 42 42 42 43 44 45 46 47 48 48 48 47 46 46 46 46 46 46 46 47 46 45 44 44 43 43 42 41 40 40 39 38 38 37 37 36 34 33 32 32 31 30 29 30 30 30 31 32 32 31 32 31 28 25 25 28 29 29 27 25 24 23 23 24 26 28 29 30
41 41 41 40 41 41 42 43 44 45 46 47 47 47 47 48 47 46 46 47 47 46 45 44 44 43 42 42 41 41 40 39 39 38 37 37 36 35 34 33 33 32 31 30 30 30 30 31 32 31 30 30 29 27 25 26 29 29 29 28 26 25 23 22 23 25 27 29 29
41 41 40 40 40 40 40 40 41 42 44 45 45 46 46 47 47 47 47 47 46 45 45 45 44 43 43 42 42 41 40 40 39 38 37 37 37 36 35 35 34 34 33 31 31 31 31 32 32 31 29 28 28 27 26 26 28 29 28 27 26 26 24 23 23 24 26 28 28
41 40 39 39 38 38 38 39 40 41 42 43 44 44 45 45 45 46 46 46 45 45 45 44 44 44 44 44 43 42 41 40 39 39 38 37 37 36 36 36 35 35 34 32 31 32 32 32 32 32 30 28 27 27 27 26 28 29 28 26 26 26 26 24 22 23 24 26 27
40 39 38 38 37 37 37 38 39 40 41 42 42 43 43 44 43 43 43 43 44 45 45 44 44 44 44 45 44 43 42 40 40 39 39 38 37 37 36 36 35 35 34 33 32 33 33 33 33 33 32 29 27 27 27 27 28 29 28 27 26 27 27 25 22 22 23 25 27
38 38 37 37 36 36 36 37 39 40 41 41 41 42 42 42 42 41 41 42 43 44 44 44 44 44 45 45 44 43 42 41 40 40 39 39 38 37 37 36 36 35 35 34 33 33 34 34 34 34 33 31 29 27 26 27 29 29 29 28 27 27 27 25 22 23 24 26 27
37 37 37 36 36 36 37 37 39 40 40 40 41 41 41 41 41 41 41 41 41 42 42 42 43 44 44 44 44 43 42 42 41 40 40 39 39 38 37 37 36 36 35 35 33 33 34 35 35 34 34 33 30 28 27 27 28 29 30 30 29 29 27 25 23 24 25 27 27
36 36 36 36 36 36 37 38 40 40 40 40 41 40 40 40 40 40 40 40 41 41 41 41 41 42 43 43 43 43 42 42 41 40 40 39 39 38 37 37 36 36 35 35 34 34 34 35 35 34 34 33 32 30 28 27 28 28 29 29 29 29 28 26 25 25 27 28 29
36 36 35 35 36 36 37 38 39 40 40 40 39 39 39 39 38 39 40 41 40 40 40 40 40 40 40 41 42 42 42 41 41 41 40 40 39 39 38 37 37 36 36 35 34 34 34 34 34 34 33 33 32 31 29 28 28 28 29 29 28 28 28 28 27 27 27 29 30
36 36 36 35 36 36 37 38 39 39 39 39 39 38 38 38 37 38 39 40 40 39 39 39 39 39 39 39 40 41 41 41 41 41 41 41 40 39 38 38 37 37 36 35 35 34 34 33 33 32 32 32 31 31 29 28 28 28 28 28 27 27 28 29 28 28 28 29 31
36 36 36 36 37 37 38 38 39 39 39 39 38 38 37 36 36 37 37 38 38 39 38 38 38 38 38 38 39 40 41 41 40 40 40 40 40 39 38 38 37 36 36 35 35 34 34 33 32 32 31 31 30 30 29 28 28 27 27 27 27 27 27 27 27 27 28 29 30
37 37 38 38 38 38 39 39 39 39 39 39 38 37 37 36 36 36 36 37 37 37 38 38 38 38 38 38 38 39 40 41 40 40 39 39 39 38 38 37 37 36 35 35 35 34 34 33 32 31 31 31 30 29 28 27 27 26 26 26 26 26 26 26 26 27 27 28 29
37 38 38 39 39 39 39 39 39 39 39 39 38 38 37 36 36 36 36 37 36 36 36 37 37 37 37 37 38 38 39 40 40 39 39 38 38 38 38 37 36 35 35 35 34 34 34 33 32 31 31 31 30 30 28 27 27 26 26 26 26 25 25 25 25 26 26 27 28
37 37 38 39 39 39 39 39 39 39 39 38 38 38 37 37 36 36 36 36 36 35 36 36 37 37 37 37 38 38 39 40 39 39 39 39 38 38 38 37 36 35 34 34 34 34 33 33 32 32 31 31 31 30 29 29 27 27 26 25 25 24 24 24 25 25 25 26 27
37 37 37 37 37 38 39 39 38 38 38 38 38 38 38 38 37 37 36 35 35 36 36 36 37 37 37 37 37 38 38 38 38 38 38 38 38 38 37 37 35 35 34 34 34 34 33 33 32 31 31 31 31 30 30 29 29 28 27 26 25 24 24 24 24 25 25 25 25
36 35 36 37 36 36 37 37 37 37 38 38 38 38 38 38 38 37 36 35 35 36 36 37 37 37 37 37 37 37 37 37 37 37 37 37 37 37 36 36 36 35 35 35 35 35 34 34 33 32 31 32 31 31 30 30 30 29 28 26 26 25 25 24 24 24 25 25 25
34 34 35 35 35 35 35 36 36 37 37 37 37 38 38 38 38 37 37 36 36 36 36 37 37 37 37 36 36 36 37 37 37 37 36 36 36 36 36 36 36 36 36 37 39 40 39 39 36 34 33 32 32 31 30 30 29 29 28 28 27 26 25 25 25 25 25 25 25
35 34 34 34 34 34 35 35 35 36 36 36 36 36 37 37 37 37 37 37 37 37 37 37 37 37 38 37 36 36 37 37 37 37 37 36 35 35 35 36 36 36 37 39 41 42 42 42 41 38 35 32 32 31 31 30 29 29 29 28 28 27 26 26 26 25 25 25 25
35 35 35 35 35 35 35 36 36 36 35 35 35 36 36 36 36 36 36 37 37 37 37 37 37 38 39 37 37 36 37 38 38 38 37 37 36 36 35 36 37 37 38 40 42 43 44 44 44 42 38 33 32 32 32 31 30 29 29 28 28 28 27 27 26 26 26 26 25
36 36 36 35 35 35 36 36 36 36 36 36 36 36 36 35 35 36 36 36 36 37 37 37 37 38 38 38 37 37 37 38 38 38 38 38 37 37 36 37 37 38 39 41 43 44 44 45 45 44 42 36 33 32 32 31 31 30 30 29 29 28 28 28 28 27 26 26 26
37 36 35 35 35 36 36 36 36 36 36 36 36 36 35 35 35 35 36 36 36 36 37 37 38 38 38 38 37 37 37 37 38 38 38 37 37 37 37 37 37 39 41 43 43 44 45 45 46 46 44 41 36 34 33 33 32 31 31 31 30 30 29 29 29 28 27 27 26
37 36 36 36 36 37 37 37 37 37 36 36 35 35 35 35 35 35 35 36 36 36 37 37 37 37 37 37 37 38 38 38 38 38 38 37 37 37 37 38 38 39 41 43 44 44 45 45 46 46 46 44 39 35 33 33 33 32 32 32 31 31 30 30 29 28 28 28 27
37 36 36 36 37 37 37 37 37 37 36 36 35 35 35 35 36 36 36 36 36 37 38 37 37 37 37 37 37 37 37 38 38 38 37 37 38 38 38 38 38 39 41 43 44 45 45 45 46 46 46 46 41 37 34 33 33 33 33 32 32 31 31 30 29 29 28 28 28
36 36 36 37 37 37 38 37 37 37 36 35 35 35 36 36 36 37 37 37 37 37 37 37 36 36 36 37 37 37 37 37 37 37 37 37 38 38 38 38 38 39 41 43 44 45 45 46 46 46 46 47 43 38 34 33 33 33 33 32 32 31 31 31 30 30 29 29 29
36 36 36 36 37 38 38 38 37 36 36 36 36 36 36 37 37 37 37 37 37 37 37 37 37 36 36 36 36 37 37 37 37 37 38 38 38 38 38 38 38 39 41 43 44 45 45 46 46 46 46 47 45 40 36 34 33 33 32 32 31 31 31 31 31 30 30 29 29
35 35 36 36 37 38 38 37 37 36 36 36 36 37 37 37 37 37 37 37 37 37 37 37 37 37 37 37 37 37 37 38 38 37 37 38 38 38 37 38 38 40 42 43 44 45 45 46 46 46 46 47 45 42 38 36 35 34 33 32 31 31 31 31 31 31 30 30 30
35 35 35 36 37 37 38 37 37 36 36 37 37 37 38 38 38 38 38 38 38 37 37 37 38 38 38 38 38 37 37 38 38 37 37 37 37 37 37 37 38 40 42 43 44 44 45 45 46 46 46 46 45 43 40 37 36 35 34 33 32 31 31 31 31 31 30 30 30
36 35 36 36 37 37 37 37 37 36 36 37 38 38 38 38 38 38 39 39 38 38 37 38 38 39 38 38 38 38 38 38 38 37 37 37 37 37 37 37 38 40 42 43 44 44 45 45 46 46 46 45 44 42 41 38 37 36 35 34 34 33 32 31 31 31 30 30 30
37 36 36 37 37 37 38 38 37 37 37 38 38 39 39 39 39 38 38 39 38 38 38 38 38 38 38 38 38 38 39 38 38 38 37 38 37 37 37 37 37 39 41 43 44 44 45 45 45 46 45 44 42 41 40 39 38 37 36 35 35 34 33 33 32 31 31 30 30
39 38 37 37 37 38 38 38 38 38 38 39 39 39 39 39 39 39 39 40 39 38 38 38 38 38 38 37 38 38 38 39 39 38 38 38 37 37 37 37 37 38 40 42 43 44 44 45 45 45 45 43 41 40 40 39 38 37 36 36 35 35 34 34 33 33 32 31 32
40 39 38 38 38 38 38 38 38 38 39 39 39 39 39 39 39 39 39 40 39 39 39 38 38 38 38 38 38 38 38 38 39 38 38 38 38 38 38 37 36 37 39 41 43 44 44 45 45 45 45 44 41 40 39 39 38 37 37 36 36 35 35 35 34 34 33 32 34
41 40 39 39 39 38 38 38 39 39 40 40 39 40 40 39 40 40 39 40 39 39 39 39 39 39 39 40 39 39 38 38 38 38 38 38 38 39 39 37 37 37 38 40 42 43 44 44 45 45 45 44 41 40 39 39 38 38 37 37 36 36 35 35 35 35 34 33 35
40 40 40 39 39 39 39 39 39 40 40 40 40 40 41 40 40 39 39 40 39 39 39 39 39 40 40 40 40 39 38 38 38 38 38 38 38 39 39 38 37 36 37 39 41 43 44 44 45 45 45 44 41 40 39 39 38 37 37 37 37 36 35 35 35 35 34 33 34
MSLP
1012.15 1012.19 1012.23 1012.27 1012.31 1012.35 1012.39 1012.39 1012.47 1012.59 1012.71 1012.83 1012.99 1013.07 1013.15 1013.27 1013.35 1013.39 1013.47 1013.55 1013.59 1013.63 1013.71 1013.83 1013.87 1013.99 1014.11 1014.27 1014.39 1014.47 1014.59 1014.75 1014.91 1014.99 1015.07 1015.19 1015.27 1015.35 1015.43 1015.55 1015.59 1015.67 1015.79 1015.87 1015.99 1016.07 1016.15 1016.27 1016.31 1016.39 1016.51 1016.55 1016.63 1016.71 1016.79 1016.83 1016.83 1016.83 1016.87 1016.99 1017.11 1017.19 1017.27 1017.39 1017.55 1017.63 1017.67 1017.71 1017.71
1012.15 1012.23 1012.27 1012.27 1012.27 1012.39 1012.43 1012.47 1012.55 1012.59 1012.67 1012.75 1012.83 1012.91 1012.99 1013.07 1013.11 1013.19 1013.27 1013.35 1013.35 1013.39 1013.51 1013.59 1013.67 1013.83 1013.95 1014.07 1014.15 1014.27 1014.43 1014.63 1014.79 1014.91 1014.99 1015.11 1015.27 1015.31 1015.39 1015.47 1015.55 1015.63 1015.71 1015.83 1015.95 1016.07 1016.19 1016.27 1016.35 1016.43 1016.55 1016.59 1016.71 1016.79 1016.83 1016.87 1016.87 1016.87 1016.95 1017.07 1017.15 1017.23 1017.31 1017.39 1017.47 1017.55 1017.59 1017.67 1017.71
1012.11 1012.19 1012.27 1012.31 1012.31 1012.39 1012.43 1012.51 1012.51 1012.55 1012.63 1012.71 1012.75 1012.83 1012.83 1012.91 1012.95 1012.99 1013.03 1013.11 1013.15 1013.27 1013.35 1013.43 1013.51 1013.59 1013.71 1013.87 1013.99 1014.11 1014.27 1014.39 1014.59 1014.79 1014.91 1015.03 1015.15 1015.27 1015.31 1015.39 1015.47 1015.55 1015.63 1015.75 1015.87 1015.99 1016.11 1016.23 1016.27 1016.35 1016.43 1016.59 1016.71 1016.83 1016.87 1016.91 1016.91 1016.95 1017.03 1017.11 1017.23 1017.27 1017.35 1017.43 1017.51 1017.55 1017.59 1017.63 1017.71
1011.99 1012.11 1012.19 1012.27 1012.27 1012.27 1012.31 1012.35 1012.43 1012.51 1012.55 1012.63 1012.71 1012.71 1012.75 1012.79 1012.79 1012.83 1012.87 1012.95 1013.03 1013.11 1013.19 1013.27 1013.39 1013.47 1013.55 1013.71 1013.83 1013.95 1014.07 1014.23 1014.43 1014.63 1014.79 1014.91 1015.03 1015.11 1015.15 1015.23 1015.35 1015.43 1015.55 1015.67 1015.83 1015.95 1016.07 1016.11 1016.15 1016.27 1016.39 1016.55 1016.67 1016.79 1016.87 1016.95 1016.99 1017.03 1017.11 1017.19 1017.27 1017.31 1017.35 1017.39 1017.51 1017.55 1017.59 1017.67 1017.79
1011.95 1011.99 1011.99 1012.11 1012.19 1012.23 1012.27 1012.27 1012.39 1012.43 1012.51 1012.59 1012.67 1012.71 1012.71 1012.71 1012.71 1012.75 1012.79 1012.87 1012.91 1012.99 1012.99 1013.11 1013.19 1013.31 1013.43 1013.55 1013.67 1013.83 1013.99 1014.11 1014.27 1014.43 1014.63 1014.75 1014.83 1014.95 1014.99 1015.11 1015.15 1015.27 1015.39 1015.55 1015.67 1015.83 1015.99 1016.03 1016.11 1016.27 1016.39 1016.55 1016.67 1016.79 1016.87 1016.99 1016.99 1017.07 1017.19 1017.27 1017.31 1017.35 1017.39 1017.39 1017.51 1017.59 1017.67 1017.75 1017.87
1011.87 1011.95 1011.99 1012.03 1012.11 1012.15 1012.23 1012.27 1012.35 1012.39 1012.47 1012.55 1012.67 1012.67 1012.63 1012.63 1012.63 1012.71 1012.71 1012.75 1012.75 1012.83 1012.87 1012.99 1013.07 1013.19 1013.35 1013.51 1013.59 1013.75 1013.91 1014.07 1014.11 1014.27 1014.47 1014.59 1014.71 1014.83 1014.91 1014.99 1015.07 1015.15 1015.31 1015.47 1015.59 1015.71 1015.83 1015.99 1016.11 1016.27 1016.43 1016.55 1016.67 1016.83 1016.91 1016.99 1016.99 1017.11 1017.23 1017.35 1017.35 1017.39 1017.43 1017.55 1017.55 1017.63 1017.71 1017.83 1017.95
1011.83 1011.87 1011.95 1011.99 1012.11 1012.15 1012.19 1012.27 1012.31 1012.39 1012.43 1012.51 1012.55 1012.55 1012.51 1012.47 1012.55 1012.55 1012.55 1012.55 1012.67 1012.75 1012.83 1012.91 1012.99 1013.11 1013.27 1013.43 1013.55 1013.67 1013.83 1013.95 1014.07 1014.19 1014.35 1014.43 1014.55 1014.71 1014.83 1014.91 1014.99 1015.11 1015.27 1015.39 1015.55 1015.67 1015.79 1015.87 1016.07 1016.27 1016.39 1016.55 1016.67 1016.83 1016.95 1016.99 1016.99 1017.11 1017.27 1017.39 1017.39 1017.47 1017.51 1017.55 1017.59 1017.67 1017.75 1017.87 1017.99
1011.79 1011.83 1011.91 1011.95 1012.03 1012.11 1012.15 1012.19 1012.27 1012.35 1012.39 1012.39 1012.43 1012.39 1012.39 1012.39 1012.43 1012.47 1012.51 1012.55 1012.63 1012.71 1012.75 1012.83 1012.95 1013.03 1013.15 1013.27 1013.43 1013.59 1013.71 1013.83 1013.99 1014.11 1014.19 1014.31 1014.51 1014.63 1014.75 1014.91 1015.03 1015.15 1015.27 1015.35 1015.51 1015.63 1015.79 1015.83 1015.99 1016.15 1016.35 1016.47 1016.67 1016.79 1016.87 1016.95 1017.03 1017.11 1017.27 1017.39 1017.47 1017.55 1017.55 1017.59 1017.63 1017.67 1017.71 1017.83 1017.95
1011.75 1011.79 1011.83 1011.91 1011.99 1012.07 1012.11 1012.19 1012.27 1012.27 1012.31 1012.27 1012.27 1012.27 1012.31 1012.35 1012.39 1012.43 1012.43 1012.47 1012.47 1012.55 1012.67 1012.75 1012.83 1012.91 1013.03 1013.15 1013.27 1013.39 1013.55 1013.67 1013.83 1013.99 1014.11 1014.27 1014.39 1014.55 1014.71 1014.83 1014.99 1015.11 1015.23 1015.35 1015.39 1015.55 1015.71 1015.83 1015.91 1016.07 1016.23 1016.39 1016.55 1016.71 1016.83 1016.83 1016.99 1017.11 1017.23 1017.35 1017.47 1017.55 1017.63 1017.63 1017.63 1017.67 1017.67 1017.79 1017.95
1011.63 1011.67 1011.79 1011.87 1011.95 1012.03 1012.11 1012.19 1012.19 1012.23 1012.23 1012.19 1012.15 1012.19 1012.23 1012.27 1012.27 1012.31 1012.35 1012.35 1012.39 1012.47 1012.55 1012.63 1012.71 1012.83 1012.95 1013.07 1013.15 1013.27 1013.39 1013.55 1013.67 1013.83 1013.99 1014.11 1014.27 1014.39 1014.55 1014.71 1014.83 1014.99 1015.11 1015.27 1015.39 1015.47 1015.59 1015.71 1015.87 1015.99 1016.11 1016.27 1016.39 1016.59 1016.71 1016.79 1016.87 1016.99 1017.15 1017.27 1017.39 1017.55 1017.63 1017.67 1017.67 1017.67 1017.67 1017.75 1017.87
1011.47 1011.55 1011.67 1011.79 1011.83 1011.95 1012.03 1012.11 1012.15 1012.15 1012.15 1012.11 1012.11 1012.11 1012.11 1012.15 1012.19 1012.19 1012.23 1012.27 1012.39 1012.43 1012.43 1012.51 1012.59 1012.71 1012.83 1012.91 1012.99 1013.11 1013.23 1013.39 1013.55 1013.67 1013.83 1013.95 1014.03 1014.19 1014.35 1014.47 1014.59 1014.75 1014.91 1015.07 1015.23 1015.39 1015.51 1015.63 1015.75 1015.91 1016.07 1016.15 1016.27 1016.43 1016.59 1016.71 1016.79 1016.87 1017.07 1017.23 1017.35 1017.47 1017.55 1017.67 1017.67 1017.67 1017.67 1017.71 1017.83
1011.39 1011.47 1011.55 1011.67 1011.75 1011.83 1011.95 1011.99 1011.99 1012.03 1012.07 1012.03 1011.99 1012.03 1012.07 1012.11 1012.11 1012.15 1012.19 1012.27 1012.35 1012.31 1012.31 1012.39 1012.43 1012.55 1012.63 1012.71 1012.79 1012.91 1013.07 1013.23 1013.39 1013.51 1013.63 1013.75 1013.87 1013.99 1014.11 1014.27 1014.39 1014.55 1014.71 1014.87 1015.03 1015.19 1015.31 1015.43 1015.55 1015.71 1015.91 1016.07 1016.19 1016.31 1016.43 1016.55 1016.63 1016.75 1016.95 1017.11 1017.27 1017.39 1017.47 1017.55 1017.59 1017.63 1017.67 1017.67 1017.75
1011.27 1011.39 1011.43 1011.55 1011.67 1011.75 1011.83 1011.83 1011.83 1011.87 1011.91 1011.87 1011.87 1011.87 1011.91 1011.95 1012.03 1012.11 1012.19 1012.27 1012.27 1012.23 1012.23 1012.27 1012.35 1012.39 1012.47 1012.51 1012.59 1012.75 1012.87 1013.03 1013.19 1013.31 1013.39 1013.55 1013.67 1013.83 1013.99 1014.11 1014.23 1014.39 1014.51 1014.67 1014.83 1014.99 1015.11 1015.27 1015.39 1015.55 1015.71 1015.91 1016.07 1016.15 1016.27 1016.39 1016.51 1016.63 1016.79 1016.99 1017.11 1017.27 1017.31 1017.39 1017.51 1017.55 1017.59 1017.63 1017.71
1011.23 1011.31 1011.35 1011.43 1011.55 1011.63 1011.67 1011.71 1011.67 1011.67 1011.67 1011.67 1011.67 1011.67 1011.75 1011.83 1011.91 1012.03 1012.11 1012.11 1012.11 1012.11 1012.15 1012.23 1012.27 1012.27 1012.31 1012.35 1012.43 1012.55 1012.71 1012.83 1012.99 1013.11 1013.23 1013.31 1013.47 1013.63 1013.75 1013.87 1014.03 1014.15 1014.31 1014.51 1014.67 1014.79 1014.91 1015.03 1015.15 1015.27 1015.47 1015.67 1015.83 1015.99 1016.11 1016.23 1016.27 1016.39 1016.55 1016.75 1016.95 1017.07 1017.15 1017.27 1017.39 1017.47 1017.55 1017.59 1017.67
1011.19 1011.23 1011.31 1011.39 1011.51 1011.55 1011.59 1011.55 1011.55 1011.55 1011.51 1011.51 1011.47 1011.51 1011.59 1011.67 1011.75 1011.83 1011.91 1011.99 1011.99 1012.03 1012.11 1012.19 1012.23 1012.19 1012.19 1012.23 1012.31 1012.43 1012.55 1012.71 1012.83 1012.95 1013.03 1013.11 1013.27 1013.39 1013.51 1013.63 1013.79 1013.99 1014.11 1014.27 1014.47 1014.59 1014.71 1014.79 1014.91 1015.03 1015.23 1015.39 1015.59 1015.83 1015.99 1016.07 1016.11 1016.19 1016.31 1016.47 1016.63 1016.79 1016.95 1017.07 1017.19 1017.27 1017.31 1017.39 1017.55
1011.11 1011.15 1011.27 1011.39 1011.43 1011.43 1011.47 1011.47 1011.39 1011.39 1011.35 1011.31 1011.27 1011.31 1011.39 1011.51 1011.55 1011.67 1011.75 1011.83 1011.83 1011.95 1012.03 1012.11 1012.11 1012.15 1012.15 1012.23 1012.27 1012.39 1012.47 1012.55 1012.67 1012.75 1012.83 1012.95 1013.03 1013.11 1013.27 1013.39 1013.55 1013.75 1013.91 1014.11 1014.27 1014.39 1014.51 1014.55 1014.67 1014.83 1014.99 1015.15 1015.35 1015.55 1015.75 1015.87 1015.99 1016.03 1016.11 1016.27 1016.39 1016.51 1016.67 1016.83 1016.99 1017.03 1017.07 1017.11 1017.27
1011.15 1011.15 1011.23 1011.27 1011.31 1011.27 1011.27 1011.27 1011.27 1011.19 1011.15 1011.11 1011.11 1011.19 1011.27 1011.35 1011.43 1011.51 1011.55 1011.63 1011.67 1011.79 1011.87 1011.95 1011.99 1012.11 1012.19 1012.23 1012.27 1012.35 1012.39 1012.47 1012.55 1012.59 1012.67 1012.71 1012.79 1012.87 1013.03 1013.15 1013.31 1013.47 1013.67 1013.83 1014.03 1014.19 1014.27 1014.39 1014.51 1014.63 1014.79 1014.91 1015.11 1015.27 1015.51 1015.67 1015.79 1015.87 1015.99 1016.07 1016.19 1016.31 1016.39 1016.51 1016.67 1016.75 1016.83 1016.95 1017.07
1011.19 1011.19 1011.23 1011.23 1011.23 1011.15 1011.11 1011.11 1011.11 1011.03 1010.99 1010.99 1010.99 1011.03 1011.11 1011.15 1011.27 1011.35 1011.39 1011.43 1011.55 1011.67 1011.71 1011.83 1011.91 1011.99 1012.11 1012.15 1012.23 1012.27 1012.31 1012.39 1012.39 1012.39 1012.43 1012.51 1012.59 1012.71 1012.83 1012.95 1013.07 1013.27 1013.43 1013.59 1013.75 1013.87 1014.03 1014.15 1014.31 1014.51 1014.67 1014.75 1014.91 1015.07 1015.27 1015.43 1015.59 1015.67 1015.83 1015.91 1016.03 1016.11 1016.23 1016.27 1016.39 1016.55 1016.67 1016.75 1016.83
1011.19 1011.19 1011.23 1011.23 1011.15 1011.11 1011.03 1010.99 1010.99 1010.91 1010.87 1010.83 1010.83 1010.87 1010.95 1010.99 1011.11 1011.19 1011.27 1011.31 1011.39 1011.51 1011.59 1011.67 1011.79 1011.87 1011.99 1012.03 1012.11 1012.15 1012.15 1012.23 1012.27 1012.27 1012.31 1012.39 1012.47 1012.55 1012.71 1012.79 1012.91 1013.07 1013.27 1013.39 1013.51 1013.63 1013.75 1013.95 1014.11 1014.31 1014.51 1014.63 1014.79 1014.95 1015.11 1015.27 1015.39 1015.55 1015.67 1015.79 1015.91 1015.99 1016.07 1016.15 1016.27 1016.35 1016.43 1016.51 1016.59
1011.19 1011.15 1011.11 1011.11 1011.11 1011.07 1011.03 1010.95 1010.87 1010.83 1010.75 1010.71 1010.75 1010.79 1010.83 1010.87 1010.95 1011.03 1011.11 1011.11 1011.23 1011.35 1011.47 1011.55 1011.63 1011.71 1011.79 1011.83 1011.99 1011.99 1011.99 1012.07 1012.11 1012.19 1012.23 1012.27 1012.39 1012.47 1012.55 1012.67 1012.79 1012.95 1013.07 1013.23 1013.31 1013.43 1013.59 1013.79 1013.95 1014.11 1014.31 1014.47 1014.63 1014.83 1014.99 1015.11 1015.27 1015.39 1015.55 1015.67 1015.75 1015.87 1015.95 1016.03 1016.11 1016.23 1016.27 1016.35 1016.43
1011.19 1011.11 1011.07 1010.99 1010.99 1010.99 1010.95 1010.87 1010.83 1010.83 1010.75 1010.71 1010.71 1010.71 1010.71 1010.75 1010.83 1010.87 1010.91 1010.95 1011.03 1011.15 1011.27 1011.35 1011.39 1011.47 1011.55 1011.67 1011.75 1011.83 1011.83 1011.87 1011.99 1012.07 1012.11 1012.15 1012.27 1012.31 1012.39 1012.51 1012.67 1012.79 1012.91 1013.03 1013.11 1013.27 1013.43 1013.59 1013.75 1013.95 1014.11 1014.27 1014.43 1014.59 1014.79 1014.99 1015.11 1015.27 1015.39 1015.47 1015.59 1015.67 1015.79 1015.87 1015.99 1016.11 1016.15 1016.23 1016.27
1011.19 1011.11 1011.03 1010.99 1010.99 1010.91 1010.83 1010.83 1010.79 1010.79 1010.75 1010.75 1010.71 1010.71 1010.71 1010.71 1010.67 1010.67 1010.71 1010.75 1010.87 1010.99 1011.03 1011.07 1011.11 1011.19 1011.27 1011.39 1011.51 1011.55 1011.63 1011.71 1011.79 1011.83 1011.91 1011.99 1012.03 1012.11 1012.19 1012.35 1012.51 1012.63 1012.75 1012.83 1012.91 1013.03 1013.19 1013.35 1013.51 1013.67 1013.87 1014.03 1014.19 1014.31 1014.47 1014.67 1014.83 1015.03 1015.15 1015.27 1015.39 1015.51 1015.63 1015.75 1015.83 1015.91 1015.99 1016.07 1016.15
1011.15 1011.11 1011.03 1010.99 1010.91 1010.83 1010.79 1010.75 1010.71 1010.71 1010.71 1010.71 1010.67 1010.67 1010.67 1010.59 1010.55 1010.55 1010.59 1010.67 1010.71 1010.71 1010.75 1010.83 1010.83 1010.91 1010.99 1011.11 1011.19 1011.31 1011.39 1011.47 1011.55 1011.59 1011.67 1011.75 1011.83 1011.91 1012.03 1012.19 1012.31 1012.39 1012.51 1012.55 1012.67 1012.79 1012.95 1013.11 1013.27 1013.47 1013.63 1013.75 1013.91 1014.07 1014.19 1014.35 1014.51 1014.71 1014.87 1015.03 1015.19 1015.31 1015.47 1015.59 1015.67 1015.79 1015.87 1015.99 1016.03
1011.07 1011.07 1010.99 1010.95 1010.91 1010.83 1010.79 1010.71 1010.71 1010.67 1010.67 1010.59 1010.55 1010.55 1010.55 1010.51 1010.51 1010.51 1010.51 1010.55 1010.55 1010.55 1010.55 1010.59 1010.63 1010.67 1010.75 1010.87 1010.99 1011.11 1011.19 1011.27 1011.31 1011.39 1011.47 1011.55 1011.63 1011.75 1011.87 1011.99 1012.11 1012.11 1012.15 1012.27 1012.35 1012.47 1012.67 1012.83 1013.07 1013.23 1013.39 1013.47 1013.63 1013.79 1013.91 1014.03 1014.19 1014.39 1014.59 1014.79 1014.99 1015.11 1015.27 1015.43 1015.55 1015.67 1015.83 1015.95 1016.03
1010.99 1010.99 1010.99 1010.91 1010.83 1010.83 1010.75 1010.75 1010.71 1010.63 1010.55 1010.51 1010.47 1010.43 1010.39 1010.39 1010.39 1010.43 1010.43 1010.39 1010.39 1010.39 1010.39 1010.39 1010.47 1010.55 1010.63 1010.71 1010.83 1010.87 1010.99 1011.07 1011.11 1011.23 1011.27 1011.35 1011.43 1011.55 1011.67 1011.79 1011.83 1011.83 1011.87 1011.95 1011.99 1012.11 1012.27 1012.39 1012.63 1012.87 1013.07 1013.23 1013.39 1013.55 1013.67 1013.83 1013.99 1014.11 1014.35 1014.55 1014.71 1014.99 1015.15 1015.35 1015.51 1015.59 1015.71 1015.83 1015.95
1010.83 1010.83 1010.83 1010.83 1010.79 1010.75 1010.71 1010.67 1010.63 1010.55 1010.51 1010.43 1010.43 1010.39 1010.39 1010.35 1010.31 1010.31 1010.35 1010.31 1010.27 1010.27 1010.27 1010.27 1010.35 1010.43 1010.51 1010.59 1010.71 1010.75 1010.83 1010.83 1010.95 1010.99 1011.11 1011.19 1011.27 1011.39 1011.47 1011.55 1011.55 1011.59 1011.67 1011.67 1011.71 1011.79 1011.91 1012.11 1012.27 1012.51 1012.79 1012.99 1013.19 1013.39 1013.55 1013.71 1013.83 1013.99 1014.15 1014.39 1014.55 1014.79 1014.99 1015.19 1015.39 1015.51 1015.63 1015.75 1015.87
1010.63 1010.63 1010.63 1010.63 1010.67 1010.63 1010.55 1010.47 1010.43 1010.43 1010.39 1010.39 1010.39 1010.35 1010.27 1010.27 1010.27 1010.27 1010.27 1010.23 1010.15 1010.15 1010.15 1010.19 1010.23 1010.27 1010.35 1010.47 1010.55 1010.59 1010.63 1010.67 1010.71 1010.83 1010.91 1010.99 1011.15 1011.27 1011.35 1011.39 1011.39 1011.43 1011.47 1011.51 1011.55 1011.59 1011.67 1011.83 1011.99 1012.23 1012.55 1012.83 1013.03 1013.23 1013.39 1013.55 1013.79 1013.95 1014.11 1014.27 1014.39 1014.59 1014.75 1014.95 1015.11 1015.27 1015.47 1015.63 1015.79
1010.43 1010.43 1010.43 1010.47 1010.51 1010.47 1010.39 1010.31 1010.31 1010.27 1010.23 1010.19 1010.19 1010.15 1010.11 1010.15 1010.19 1010.19 1010.15 1010.11 1010.11 1010.11 1010.11 1010.11 1010.11 1010.11 1010.23 1010.27 1010.31 1010.31 1010.39 1010.43 1010.51 1010.59 1010.71 1010.83 1010.95 1011.03 1011.11 1011.15 1011.19 1011.23 1011.27 1011.35 1011.39 1011.43 1011.55 1011.63 1011.75 1011.95 1012.23 1012.59 1012.87 1013.07 1013.23 1013.39 1013.63 1013.83 1013.99 1014.11 1014.27 1014.39 1014.55 1014.67 1014.83 1015.03 1015.27 1015.43 1015.59
1010.27 1010.27 1010.31 1010.39 1010.31 1010.27 1010.15 1010.15 1010.11 1010.03 1009.99 1009.99 1009.99 1009.99 1009.99 1010.03 1010.03 1010.03 1009.99 1009.99 1010.03 1010.11 1010.11 1010.07 1010.03 1010.07 1010.11 1010.07 1009.99 1010.03 1010.11 1010.23 1010.27 1010.39 1010.51 1010.63 1010.71 1010.79 1010.83 1010.95 1010.99 1011.03 1011.07 1011.15 1011.23 1011.27 1011.35 1011.43 1011.51 1011.67 1011.87 1012.23 1012.59 1012.83 1013.03 1013.23 1013.39 1013.59 1013.75 1013.91 1014.03 1014.15 1014.27 1014.43 1014.63 1014.83 1014.99 1015.23 1015.39
1010.19 1010.23 1010.27 1010.23 1010.15 1010.07 1009.99 1009.95 1009.83 1009.79 1009.71 1009.67 1009.71 1009.75 1009.83 1009.83 1009.83 1009.83 1009.79 1009.79 1009.83 1009.87 1009.91 1009.91 1009.99 1009.99 1009.99 1009.83 1009.83 1009.83 1009.91 1009.99 1010.07 1010.19 1010.27 1010.35 1010.43 1010.51 1010.55 1010.63 1010.75 1010.83 1010.87 1010.95 1011.03 1011.11 1011.15 1011.23 1011.31 1011.39 1011.55 1011.83 1012.27 1012.55 1012.79 1012.99 1013.15 1013.31 1013.51 1013.63 1013.75 1013.87 1014.03 1014.19 1014.39 1014.55 1014.71 1014.87 1015.11
1010.11 1010.15 1010.15 1010.11 1010.03 1009.95 1009.83 1009.71 1009.67 1009.55 1009.51 1009.47 1009.51 1009.55 1009.55 1009.55 1009.55 1009.51 1009.47 1009.47 1009.47 1009.55 1009.63 1009.79 1009.91 1009.87 1009.79 1009.71 1009.71 1009.67 1009.67 1009.75 1009.83 1009.95 1010.03 1010.07 1010.07 1010.11 1010.23 1010.35 1010.51 1010.59 1010.71 1010.75 1010.83 1010.87 1010.95 1010.99 1011.11 1011.15 1011.27 1011.51 1011.87 1012.23 1012.51 1012.71 1012.91 1013.07 1013.19 1013.31 1013.43 1013.59 1013.75 1013.95 1014.07 1014.23 1014.35 1014.55 1014.71
1009.99 1009.99 1009.99 1009.99 1009.91 1009.71 1009.59 1009.51 1009.43 1009.39 1009.39 1009.31 1009.27 1009.27 1009.27 1009.23 1009.15 1009.11 1009.11 1009.11 1009.15 1009.27 1009.39 1009.55 1009.63 1009.67 1009.67 1009.67 1009.63 1009.59 1009.55 1009.55 1009.63 1009.67 1009.67 1009.79 1009.83 1009.87 1009.99 1010.11 1010.23 1010.35 1010.47 1010.55 1010.63 1010.71 1010.75 1010.83 1010.91 1010.99 1011.11 1011.23 1011.55 1011.91 1012.23 1012.47 1012.67 1012.83 1012.95 1013.07 1013.19 1013.31 1013.43 1013.55 1013.71 1013.83 1013.99 1014.11 1014.27
1009.83 1009.83 1009.83 1009.83 1009.67 1009.55 1009.39 1009.31 1009.27 1009.23 1009.19 1009.15 1009.11 1009.07 1008.99 1008.91 1008.83 1008.83 1008.83 1008.83 1008.87 1008.99 1009.07 1009.15 1009.27 1009.35 1009.39 1009.43 1009.47 1009.43 1009.43 1009.39 1009.39 1009.39 1009.43 1009.51 1009.59 1009.67 1009.79 1009.83 1009.99 1010.07 1010.23 1010.35 1010.47 1010.55 1010.59 1010.67 1010.71 1010.83 1010.87 1010.99 1011.27 1011.59 1011.95 1012.19 1012.39 1012.59 1012.75 1012.83 1012.99 1013.11 1013.19 1013.27 1013.39 1013.47 1013.59 1013.71 1013.83
1009.63 1009.63 1009.59 1009.55 1009.47 1009.31 1009.19 1009.11 1009.03 1008.99 1008.99 1008.95 1008.91 1008.83 1008.83 1008.71 1008.71 1008.63 1008.59 1008.55 1008.55 1008.59 1008.67 1008.71 1008.83 1008.91 1008.99 1009.11 1009.19 1009.23 1009.23 1009.15 1009.19 1009.23 1009.27 1009.27 1009.39 1009.47 1009.55 1009.59 1009.67 1009.75 1009.91 1010.11 1010.23 1010.31 1010.39 1010.47 1010.55 1010.67 1010.71 1010.83 1010.99 1011.27 1011.63 1011.91 1012.11 1012.31 1012.47 1012.59 1012.71 1012.83 1012.99 1013.03 1013.11 1013.15 1013.27 1013.39 1013.55
1009.43 1009.43 1009.39 1009.31 1009.23 1009.11 1008.99 1008.91 1008.83 1008.83 1008.79 1008.75 1008.71 1008.63 1008.55 1008.55 1008.47 1008.39 1008.27 1008.23 1008.27 1008.27 1008.31 1008.35 1008.43 1008.55 1008.71 1008.79 1008.87 1008.95 1008.99 1008.99 1008.99 1008.99 1009.03 1009.11 1009.15 1009.23 1009.27 1009.27 1009.31 1009.43 1009.59 1009.75 1009.95 1010.07 1010.19 1010.27 1010.39 1010.47 1010.59 1010.71 1010.79 1010.95 1011.23 1011.51 1011.75 1011.95 1012.11 1012.27 1012.47 1012.63 1012.75 1012.83 1012.91 1012.99 1013.11 1013.23 1013.31
1009.27 1009.23 1009.11 1009.03 1008.95 1008.83 1008.79 1008.71 1008.63 1008.59 1008.55 1008.51 1008.43 1008.39 1008.35 1008.27 1008.23 1008.11 1008.03 1007.99 1007.99 1008.03 1008.03 1008.07 1008.15 1008.27 1008.39 1008.47 1008.55 1008.59 1008.67 1008.71 1008.71 1008.79 1008.83 1008.87 1008.95 1008.99 1008.95 1008.95 1009.03 1009.15 1009.27 1009.43 1009.59 1009.75 1009.91 1010.03 1010.15 1010.27 1010.39 1010.55 1010.55 1010.67 1010.83 1011.11 1011.35 1011.55 1011.75 1011.95 1012.11 1012.31 1012.47 1012.67 1012.75 1012.83 1012.95 1013.03 1013.11
1008.99 1008.95 1008.87 1008.79 1008.71 1008.63 1008.55 1008.47 1008.43 1008.39 1008.27 1008.19 1008.11 1008.07 1008.03 1007.99 1007.99 1007.87 1007.83 1007.83 1007.83 1007.79 1007.71 1007.71 1007.83 1007.91 1007.99 1008.03 1008.11 1008.19 1008.27 1008.35 1008.47 1008.55 1008.59 1008.63 1008.67 1008.67 1008.67 1008.71 1008.75 1008.87 1008.99 1009.15 1009.27 1009.43 1009.59 1009.79 1009.95 1010.07 1010.23 1010.31 1010.39 1010.47 1010.59 1010.83 1010.99 1011.19 1011.39 1011.59 1011.79 1011.99 1012.19 1012.39 1012.55 1012.71 1012.79 1012.83 1012.95
1008.71 1008.67 1008.63 1008.55 1008.47 1008.39 1008.27 1008.27 1008.19 1008.11 1008.03 1007.91 1007.83 1007.71 1007.71 1007.71 1007.67 1007.67 1007.63 1007.63 1007.55 1007.43 1007.35 1007.35 1007.39 1007.43 1007.55 1007.67 1007.79 1007.83 1007.95 1008.07 1008.15 1008.27 1008.35 1008.35 1008.39 1008.39 1008.39 1008.39 1008.47 1008.59 1008.75 1008.87 1008.99 1009.11 1009.27 1009.47 1009.63 1009.79 1009.95 1010.07 1010.15 1010.27 1010.39 1010.55 1010.71 1010.91 1011.11 1011.27 1011.47 1011.67 1011.91 1012.11 1012.31 1012.43 1012.55 1012.63 1012.71
1008.47 1008.39 1008.39 1008.35 1008.27 1008.15 1008.07 1007.99 1007.95 1007.83 1007.75 1007.67 1007.55 1007.43 1007.39 1007.43 1007.39 1007.35 1007.31 1007.27 1007.19 1007.11 1006.99 1006.95 1006.99 1006.99 1007.15 1007.35 1007.51 1007.59 1007.67 1007.79 1007.87 1007.95 1007.99 1008.03 1008.11 1008.11 1008.15 1008.19 1008.23 1008.31 1008.43 1008.55 1008.71 1008.83 1008.95 1009.11 1009.27 1009.43 1009.59 1009.75 1009.91 1010.07 1010.19 1010.31 1010.47 1010.63 1010.79 1010.99 1011.19 1011.39 1011.63 1011.83 1012.03 1012.19 1012.31 1012.39 1012.43
1008.27 1008.19 1008.15 1008.11 1008.03 1007.99 1007.87 1007.79 1007.67 1007.59 1007.51 1007.39 1007.31 1007.23 1007.11 1007.11 1007.03 1006.99 1006.99 1006.99 1006.95 1006.79 1006.71 1006.59 1006.59 1006.67 1006.83 1007.07 1007.23 1007.31 1007.39 1007.43 1007.55 1007.59 1007.67 1007.71 1007.79 1007.83 1007.91 1007.95 1007.99 1008.03 1008.15 1008.27 1008.35 1008.51 1008.63 1008.79 1008.95 1009.11 1009.27 1009.47 1009.67 1009.83 1009.99 1010.11 1010.27 1010.39 1010.55 1010.71 1010.87 1011.11 1011.35 1011.55 1011.71 1011.87 1012.03 1012.15 1012.19
1008.11 1008.03 1007.99 1007.91 1007.83 1007.75 1007.67 1007.59 1007.47 1007.31 1007.23 1007.11 1007.03 1006.95 1006.83 1006.79 1006.75 1006.75 1006.75 1006.79 1006.71 1006.55 1006.43 1006.31 1006.31 1006.39 1006.55 1006.75 1006.87 1006.99 1007.03 1007.11 1007.15 1007.27 1007.35 1007.47 1007.51 1007.55 1007.63 1007.67 1007.67 1007.75 1007.83 1007.95 1008.03 1008.11 1008.27 1008.39 1008.55 1008.75 1008.95 1009.15 1009.39 1009.59 1009.79 1009.95 1010.07 1010.15 1010.27 1010.39 1010.55 1010.75 1010.99 1011.23 1011.39 1011.59 1011.71 1011.87 1011.95
Wind_Speed
4 3 3 3 2 2 2 2 2 2 2 3 3 3 3 4 4 3 3 4 4 4 3 3 4 4 4 5 6 6 5 5 4 5 5 5 5 5 5 4 4 4 4 4 4 3 3 3 3 2 2 2 2 2 2 1 2 3 3 3 3 3 4 5 5 4 4 3 3
5 4 4 4 3 3 2 2 3 3 3 3 3 3 3 3 4 4 4 4 4 4 3 3 4 4 5 6 7 7 6 6 6 5 5 5 5 5 5 5 5 5 5 5 4 4 3 3 3 3 2 2 2 2 2 1 2 3 3 3 2 3 3 4 4 4 4 3 3
5 5 4 4 4 4 3 3 3 4 4 3 3 3 3 3 3 3 4 4 4 4 4 3 4 5 6 7 6 6 6 7 6 6 6 5 5 5 5 5 5 5 5 5 4 4 3 3 3 3 2 2 2 2 2 1 1 2 3 3 2 2 2 3 3 3 3 3 3
5 5 5 6 6 6 6 4 4 4 4 3 3 3 3 3 3 3 3 3 3 4 4 4 4 5 5 6 6 6 6 7 7 7 6 6 5 5 6 6 6 5 5 5 4 4 4 3 3 2 2 3 3 2 2 2 2 2 2 2 1 2 2 2 2 2 2 2 2
6 6 6 6 7 7 6 5 4 4 4 3 3 3 3 3 3 3 3 3 4 4 4 4 4 4 5 6 7 7 7 7 7 7 6 6 6 6 6 6 6 6 5 5 5 5 4 3 3 2 2 2 2 2 2 2 3 2 2 2 1 1 2 2 2 2 2 2 2
5 6 6 6 6 6 5 4 5 4 3 3 3 4 4 4 3 4 4 4 4 4 4 4 4 4 5 6 6 6 6 6 7 6 6 6 6 5 5 6 6 5 5 5 5 5 5 4 3 2 2 2 2 2 2 3 3 3 2 2 1 1 2 2 2 2 3 3 2
5 5 5 6 6 6 5 5 4 4 3 3 4 5 6 5 5 5 6 5 4 4 4 4 4 5 5 5 6 6 6 6 6 6 6 6 6 6 6 6 5 5 5 5 5 5 4 4 3 3 3 3 2 2 2 3 3 3 3 2 1 1 1 2 2 2 3 4 4
5 5 5 5 5 6 6 6 5 4 4 4 5 7 7 7 6 6 6 5 4 4 4 4 5 5 6 6 6 6 6 6 6 6 6 6 6 6 6 6 6 6 6 6 6 5 5 4 4 3 3 3 2 2 2 3 4 4 3 3 1 1 1 1 2 3 4 5 5
4 4 5 5 5 5 5 5 5 6 6 6 7 7 7 7 7 7 6 5 5 4 4 4 5 6 6 6 6 6 6 6 6 6 6 6 7 7 6 6 6 6 6 5 6 6 6 4 4 4 3 3 3 3 3 4 5 4 4 3 2 1 1 1 2 3 4 5 6
5 5 4 4 5 5 5 5 5 6 7 8 8 8 8 8 7 7 6 6 5 4 4 5 5 6 6 7 6 6 6 6 6 6 6 6 7 7 7 7 7 7 6 6 6 6 6 5 4 4 4 3 4 4 5 5 6 5 4 3 3 3 2 1 2 3 4 4 5
6 6 5 4 5 5 5 5 5 6 7 8 8 8 8 8 8 7 6 5 4 5 5 5 6 6 6 6 6 6 6 6 6 6 7 7 7 8 8 8 8 8 7 7 6 6 5 5 5 5 5 4 4 5 6 6 6 6 5 4 4 4 3 2 2 3 4 4 5
7 6 5 5 4 4 5 5 5 6 7 8 8 8 8 8 7 6 5 5 6 6 6 5 6 7 7 6 7 6 6 6 6 6 7 7 7 8 8 8 8 8 8 7 6 6 5 5 6 6 6 5 4 5 6 7 6 6 6 4 4 4 4 4 3 3 3 4 5
7 6 5 5 4 5 5 6 6 6 7 8 9 8 8 7 6 6 5 6 7 7 6 5 6 6 7 7 7 6 6 7 7 7 7 7 7 8 8 8 8 8 8 7 7 6 6 7 7 8 8 7 5 5 6 7 7 7 7 6 5 5 5 5 5 4 4 4 4
6 6 6 5 5 5 5 6 6 6 7 8 8 8 7 7 6 5 5 6 7 7 6 5 5 6 7 7 7 7 7 7 7 8 8 8 8 8 8 8 8 8 8 7 7 7 8 8 9 9 9 8 7 7 7 7 8 8 8 8 7 7 7 6 6 5 5 5 5
6 6 6 5 5 5 5 6 6 6 7 8 8 7 7 6 6 6 6 7 7 7 6 5 6 6 7 7 7 7 7 7 8 8 9 9 9 9 9 9 9 8 8 7 8 8 9 10 10 9 9 9 9 8 7 7 8 8 8 8 9 8 8 7 7 7 7 7 6
6 6 5 5 5 6 6 7 6 6 7 8 7 7 6 6 5 5 6 7 7 6 6 6 6 6 6 7 7 7 7 8 8 9 9 9 10 10 10 9 9 9 9 9 9 9 9 10 10 9 9 9 9 9 8 8 8 8 8 8 8 8 8 8 8 8 8 8 7
6 6 5 5 6 7 7 7 7 7 7 8 7 7 6 5 5 5 6 7 6 6 7 7 7 6 6 6 6 7 7 8 9 9 10 10 11 11 10 10 10 10 10 10 10 10 10 10 9 9 9 9 9 9 9 8 8 8 8 8 8 8 8 8 8 8 8 8 8
6 6 5 5 7 8 8 8 8 8 8 8 8 7 6 5 5 5 6 6 6 7 7 8 7 6 6 7 6 6 7 8 9 10 10 11 11 11 11 11 11 10 10 11 11 11 11 11 10 9 8 8 8 8 8 8 8 8 8 8 7 7 8 8 8 8 8 8 8
7 6 6 7 8 8 9 9 9 9 9 8 7 7 6 6 6 6 6 6 6 7 7 7 7 7 7 8 7 7 8 8 9 10 10 10 10 10 11 11 10 10 11 11 11 11 11 11 10 9 9 8 8 8 8 8 8 8 8 7 7 7 7 8 8 8 8 8 8
8 8 8 8 8 8 9 9 9 9 9 8 7 7 7 7 6 6 6 7 7 7 7 7 7 7 7 8 8 8 9 8 9 10 10 9 10 10 10 11 10 10 11 11 11 11 11 11 10 10 10 9 9 8 8 8 8 8 7 7 7 7 7 7 8 8 8 8 8
9 9 9 9 8 9 9 9 9 8 8 8 8 8 8 7 7 7 7 7 6 6 7 8 8 8 8 8 9 9 9 8 9 9 9 9 10 10 10 10 10 10 10 11 11 11 11 11 10 10 10 10 10 9 9 8 8 8 8 7 7 7 7 7 7 7 8 8 8
9 9 9 9 9 9 9 9 8 8 8 8 8 8 8 8 8 7 7 6 5 6 7 8 8 9 9 9 9 9 8 8 8 9 9 9 9 10 10 9 9 10 10 11 11 11 11 10 10 10 10 10 10 10 9 9 8 8 8 7 7 6 6 6 7 7 7 7 7
8 8 8 8 8 9 9 9 9 8 9 9 9 9 8 8 8 8 7 6 6 7 7 8 8 8 9 8 8 8 8 8 8 9 9 9 9 9 9 8 9 10 11 10 10 10 10 9 10 10 10 10 10 10 10 9 9 8 8 7 7 6 6 6 6 6 6 7 7
7 7 7 7 7 8 9 8 8 9 9 10 9 9 9 9 8 8 7 7 8 8 8 8 7 8 8 8 8 8 8 9 9 9 9 9 9 8 8 8 9 10 10 9 10 10 10 9 9 9 9 9 9 9 9 9 8 8 8 8 7 7 6 6 6 6 6 6 6
6 6 6 6 6 7 8 8 9 9 10 10 9 9 9 9 9 8 8 8 9 9 9 9 8 7 7 7 7 8 8 9 10 10 9 9 8 8 8 8 8 8 8 9 12 14 14 12 10 8 8 8 8 7 7 8 8 8 8 8 8 7 6 6 6 6 6 7 6
5 5 5 6 6 7 8 9 9 10 10 9 9 9 9 9 8 8 8 9 10 10 9 9 8 8 7 7 7 8 8 9 9 10 10 9 9 9 8 8 8 7 8 10 15 17 18 17 15 12 9 7 7 7 7 7 7 8 8 8 8 8 7 7 7 7 7 7 7
4 5 5 6 7 8 9 9 9 9 9 9 9 9 9 9 8 8 9 10 10 10 9 8 8 8 8 7 8 9 9 9 9 10 10 10 10 10 10 9 8 8 8 12 16 19 20 20 19 16 12 8 8 7 7 7 7 8 8 8 8 8 9 9 9 8 8 7 7
5 5 5 6 6 8 8 8 8 9 10 10 10 9 9 9 9 9 9 10 9 8 8 8 7 6 6 6 8 10 10 10 10 10 10 10 11 11 11 10 9 9 11 15 18 19 20 21 21 19 16 11 8 8 8 7 8 8 8 8 8 9 9 9 8 8 8 8 8
7 6 6 6 7 8 8 8 9 10 10 10 9 9 9 9 9 10 10 10 9 8 8 7 6 5 6 7 9 10 10 10 10 10 9 10 11 11 12 11 11 12 14 18 19 20 21 21 21 21 19 16 10 7 7 7 7 7 7 7 8 9 9 8 8 8 8 8 8
8 8 7 8 8 9 9 9 10 10 9 8 8 8 9 9 10 10 10 11 10 10 8 6 6 6 8 9 9 9 9 10 9 10 10 11 12 12 12 12 11 12 15 19 20 21 21 21 22 22 21 19 13 9 7 7 7 7 8 8 8 9 9 9 9 9 8 8 8
9 8 8 8 9 10 10 10 10 9 8 7 8 8 9 9 10 11 11 10 10 9 8 7 8 9 10 10 10 10 10 10 10 10 11 12 13 13 13 13 12 13 15 19 20 21 21 22 22 22 22 21 15 10 8 8 8 8 8 8 9 10 10 10 10 10 10 10 9
8 8 9 9 10 10 10 10 9 8 8 8 8 8 9 10 10 10 9 8 8 8 8 9 10 11 11 11 10 10 11 10 10 11 12 12 13 13 13 12 12 13 15 19 21 21 22 22 22 22 22 22 15 11 9 9 8 8 8 9 10 11 11 10 9 10 11 11 11
8 8 9 10 11 11 11 10 9 8 7 8 8 9 10 10 9 8 7 7 7 8 9 10 11 12 12 11 11 11 11 11 12 12 13 13 13 13 13 12 12 13 16 19 21 22 22 22 22 22 23 23 16 12 10 9 8 8 8 8 9 10 11 11 10 10 11 11 11
7 8 8 9 10 11 10 9 8 7 7 7 8 9 9 9 9 8 8 7 7 8 9 10 10 11 11 11 10 11 12 12 12 12 12 13 13 13 13 12 10 12 16 20 21 22 22 22 22 22 22 23 16 12 10 10 9 8 8 8 8 9 9 10 10 10 11 11 10
7 7 8 9 9 10 10 9 8 7 7 8 9 9 10 9 10 10 9 8 8 8 8 9 9 9 10 10 11 11 12 12 12 12 12 12 12 13 13 13 11 13 17 20 21 22 22 22 22 22 22 20 14 11 10 11 10 10 10 9 9 9 9 9 9 9 9 10 10
7 7 8 9 9 9 9 9 9 8 8 8 9 10 10 9 10 9 8 7 8 8 8 8 9 10 11 10 11 12 13 13 13 12 12 12 12 13 14 14 13 14 17 20 21 21 22 22 22 22 21 17 11 9 9 10 9 10 11 10 10 10 9 9 9 8 8 9 9
8 7 8 8 9 9 9 9 9 9 9 10 10 10 10 10 9 8 7 7 8 8 9 9 10 11 12 12 12 12 12 13 13 12 12 12 13 13 14 14 13 14 16 19 20 21 21 22 22 21 19 14 10 8 8 8 8 9 10 10 10 10 10 9 8 8 8 9 10
9 8 8 8 9 9 10 9 9 10 10 11 11 10 9 9 8 7 7 7 8 9 10 9 11 12 12 12 12 12 12 12 13 13 13 13 13 13 14 14 13 13 14 17 19 20 21 21 22 21 18 12 9 8 8 7 7 8 8 9 9 9 9 8 8 8 9 10 12
10 10 9 9 9 10 10 10 10 11 11 12 11 10 9 8 7 6 6 7 8 9 9 10 11 11 11 11 11 11 12 12 13 13 13 13 13 14 14 14 13 12 13 16 19 20 21 21 21 22 19 13 10 8 7 7 8 8 8 8 8 8 9 8 8 8 9 11 15
11 10 10 10 10 10 10 11 11 11 11 11 11 11 10 8 8 7 6 7 8 8 9 10 10 10 10 11 11 11 12 12 12 13 13 14 14 14 15 14 12 12 13 16 18 20 21 21 21 22 20 14 10 8 7 7 8 8 8 8 7 7 8 8 8 7 8 10 14
10 10 10 10 10 10 10 11 12 12 11 11 11 11 9 7 7 7 6 7 8 8 9 9 10 10 10 11 11 11 12 12 13 13 13 13 13 14 15 14 12 12 12 14 18 20 21 21 21 22 20 14 10 8 7 7 8 9 9 9 8 7 7 7 7 7 8 9 10
Wind_Direction
198 199 202 204 206 206 209 212 203 190 178 174 179 180 179 177 185 189 189 188 194 197 195 188 183 176 169 167 173 178 181 179 176 176 176 173 168 162 157 152 148 145 141 138 135 132 131 131 128 124 122 123 121 114 105 102 124 133 138 139 141 145 150 157 163 163 160 155 147
201 199 201 206 209 209 210 214 211 204 194 187 186 184 182 182 189 191 192 193 196 194 189 183 175 169 167 170 173 175 177 178 178 179 178 172 166 160 155 153 150 147 145 143 142 141 140 138 134 130 124 116 113 110 104 93 119 133 142 150 148 149 155 164 168 165 157 149 139
205 202 202 207 210 211 211 213 213 208 203 197 190 186 185 188 192 195 196 197 193 189 184 181 174 168 166 168 171 174 176 177 177 179 178 172 165 160 156 154 151 148 145 143 145 145 145 144 140 137 133 129 128 126 123 107 118 130 140 152 146 149 158 167 162 154 145 138 132
211 208 207 211 214 215 216 217 213 209 204 197 189 188 191 196 197 198 198 194 191 190 189 183 173 168 166 166 170 173 176 177 176 178 180 175 168 164 160 156 154 152 149 144 144 144 142 141 133 130 131 136 139 140 136 126 117 113 114 122 120 138 152 157 147 141 136 132 128
218 216 215 215 217 219 221 222 217 213 205 193 190 195 201 206 205 203 201 201 202 200 193 179 171 167 167 166 169 172 175 177 178 180 182 179 173 167 163 161 162 159 154 149 148 146 143 136 123 116 119 128 130 130 127 124 118 108 93 78 81 105 128 134 135 135 131 124 110
223 223 224 224 223 225 227 229 224 218 207 191 195 205 212 215 212 211 213 217 213 202 188 175 170 167 165 164 167 170 174 178 180 181 180 180 174 168 166 169 167 163 157 153 151 148 145 140 129 120 117 116 109 107 110 118 119 114 104 87 73 79 101 124 134 135 131 127 121
224 225 228 230 229 230 232 233 231 226 217 206 209 216 222 222 219 219 220 223 218 204 190 181 177 173 170 169 171 174 177 180 181 180 178 178 174 172 173 175 170 166 163 159 156 153 152 149 144 140 136 128 117 112 117 123 125 125 125 126 102 88 102 127 134 138 138 140 141
226 224 225 227 230 232 234 235 235 232 229 226 225 227 228 229 227 227 227 229 225 214 202 194 188 183 179 177 180 181 181 181 182 182 181 178 175 175 176 175 173 173 171 165 163 162 161 158 157 156 154 149 142 141 141 138 137 140 144 148 134 104 100 128 137 143 146 148 149
229 225 222 222 225 229 231 234 235 235 235 236 235 234 233 233 231 232 233 234 230 220 209 203 196 190 186 185 186 186 185 184 185 185 183 179 177 177 178 177 179 180 178 172 169 167 166 165 164 163 162 161 160 158 155 149 149 152 156 154 145 130 107 112 136 145 149 151 154
232 227 221 219 221 222 225 230 234 236 238 240 240 239 237 236 234 233 233 236 233 225 215 209 199 195 193 194 194 192 190 186 185 185 184 183 182 182 182 183 185 185 184 179 174 169 167 168 170 170 168 165 161 160 159 158 159 162 165 158 151 145 141 134 142 149 153 156 159
232 229 223 218 217 215 215 221 230 234 237 241 242 242 240 239 237 235 234 234 233 228 223 213 202 199 199 201 200 197 192 189 186 185 186 188 189 188 187 188 188 188 187 183 177 173 172 176 177 177 175 171 162 161 164 166 166 167 169 165 158 157 158 163 159 158 157 158 158
234 231 226 220 213 209 209 216 225 230 234 239 241 242 241 240 239 237 235 231 231 230 227 216 206 204 205 209 205 200 194 190 188 188 188 192 192 192 191 192 191 191 190 184 179 177 179 184 185 184 183 179 172 169 170 172 172 172 173 171 169 170 172 174 171 166 159 154 155
233 233 230 224 215 210 211 218 225 229 233 236 239 240 240 240 238 235 233 231 232 233 230 222 212 210 211 214 209 203 196 193 192 192 193 194 194 193 194 195 195 194 192 186 182 182 186 191 191 191 189 187 185 181 177 175 177 178 179 178 180 183 184 179 173 165 157 152 158
234 234 233 229 221 218 219 224 229 232 234 236 238 238 238 239 235 230 228 229 232 234 233 226 219 217 217 217 213 206 201 196 196 197 198 198 196 195 196 198 196 195 192 188 185 187 191 196 196 195 194 192 192 188 184 181 182 184 184 184 188 191 189 180 171 164 160 162 167
237 237 235 232 228 228 229 231 236 238 238 239 239 238 237 238 232 227 225 228 231 232 231 227 227 225 223 220 216 210 204 200 199 200 202 203 200 198 197 198 197 195 193 189 189 192 196 199 199 198 196 195 194 191 188 188 189 189 190 190 192 192 189 179 172 169 169 169 171
239 238 237 233 232 234 235 237 241 242 243 243 242 240 237 236 231 226 224 227 230 230 229 227 228 228 227 224 219 213 208 205 204 204 206 207 204 202 200 199 197 195 193 190 191 196 200 202 201 199 197 197 194 192 190 191 193 194 195 195 193 191 187 179 176 176 177 175 177
242 240 237 232 233 235 237 239 242 243 245 246 245 242 238 235 232 228 226 227 229 229 229 227 226 226 226 226 221 216 213 212 210 209 209 210 207 205 203 201 199 196 193 191 193 197 201 204 202 200 198 197 195 192 191 192 195 197 198 197 195 192 187 181 180 180 181 181 183
251 246 240 234 235 236 238 240 242 244 246 247 247 244 239 236 233 231 230 228 228 229 230 229 226 223 223 223 220 218 216 217 217 215 214 213 209 206 204 203 200 196 194 193 195 198 200 201 200 199 197 197 195 192 190 190 194 197 199 198 196 192 189 185 183 182 183 185 188
263 257 250 242 240 240 241 242 243 245 246 247 247 246 243 238 235 234 234 233 229 229 230 232 228 224 222 221 221 220 220 220 221 220 219 216 212 208 205 204 200 197 195 195 197 198 199 198 196 195 195 195 194 191 189 189 193 195 197 196 195 193 190 187 186 186 187 189 188
268 264 259 252 248 246 246 245 245 246 248 250 250 249 248 243 238 237 237 237 232 230 230 233 231 228 224 222 222 222 223 223 222 223 222 218 214 210 207 203 200 197 196 196 198 199 198 196 194 193 192 192 192 190 188 188 190 193 194 194 194 193 191 189 188 188 190 191 186
264 263 261 259 256 253 251 250 250 251 252 253 252 252 251 248 243 240 239 239 235 231 230 232 232 230 228 224 223 224 225 225 223 223 223 219 216 213 208 203 199 198 197 198 199 199 197 194 192 191 191 192 192 190 188 186 189 191 192 193 193 192 191 189 189 190 192 193 188
257 258 258 259 258 256 256 256 256 256 256 256 255 254 253 251 247 244 241 240 237 233 231 233 233 232 231 227 225 226 227 228 226 224 223 220 218 215 210 203 199 199 199 200 200 199 196 194 191 190 190 192 193 191 189 186 187 189 191 192 192 191 191 191 191 193 194 195 191
248 250 251 253 253 255 256 257 257 257 257 256 256 255 254 253 251 248 244 241 238 234 233 234 234 233 232 230 227 227 228 230 229 228 225 223 221 217 212 204 201 201 202 202 200 197 195 193 192 191 191 192 193 193 191 188 187 188 189 191 190 190 192 194 195 196 197 198 195
237 238 240 243 244 247 249 251 253 253 254 254 253 253 253 253 252 251 248 243 239 236 235 236 235 234 233 231 228 227 227 229 231 231 229 226 223 218 213 207 206 206 207 206 201 198 195 193 192 193 193 194 194 193 192 190 189 188 188 188 189 190 193 196 197 197 198 199 199
228 228 230 231 233 235 238 241 243 245 247 248 249 250 250 251 251 250 249 246 242 239 237 237 236 235 232 230 228 227 226 228 229 230 230 228 225 220 215 213 214 213 212 212 208 205 202 199 195 193 193 195 195 194 193 193 192 190 188 188 188 189 191 197 200 201 200 199 199
230 226 226 225 225 227 229 231 234 237 240 242 243 244 245 245 246 247 247 248 246 243 240 238 238 235 233 230 228 227 227 227 228 228 228 227 225 221 219 219 219 218 217 217 213 211 209 206 202 197 192 191 192 193 194 197 195 193 190 189 188 189 190 195 200 201 201 200 199
253 240 233 228 226 226 227 227 228 230 232 233 234 235 236 237 238 240 242 245 246 246 244 241 239 236 234 231 228 227 226 227 226 226 225 224 222 221 220 221 221 220 219 218 216 214 212 210 207 201 194 188 190 192 195 197 195 193 192 192 192 192 193 195 196 197 197 199 199
275 261 250 242 236 234 233 230 228 227 227 226 226 227 228 228 230 232 235 239 243 245 245 244 239 236 233 231 228 227 226 225 224 224 223 223 222 220 220 221 221 221 219 218 217 216 214 213 210 205 197 188 189 192 194 194 193 193 194 196 197 197 197 198 194 192 190 192 194
286 277 267 258 251 247 243 237 232 229 226 223 221 220 221 221 223 226 229 232 234 237 239 241 238 235 232 232 231 229 227 225 224 223 222 222 223 222 221 221 222 223 221 219 218 217 216 214 213 209 202 192 189 189 193 193 193 194 196 199 200 200 199 199 194 190 187 186 189
292 286 277 267 261 257 251 244 238 232 227 222 218 216 216 218 220 222 224 225 227 229 230 232 232 231 231 230 230 229 227 226 224 222 221 222 223 223 223 222 223 223 223 221 220 218 217 215 214 212 207 196 190 187 190 194 194 195 198 201 201 200 199 198 193 189 186 184 185
294 289 281 274 267 262 256 249 243 236 230 222 216 214 216 218 221 221 221 220 222 223 223 223 226 229 230 229 228 227 226 225 222 221 220 221 224 224 224 223 223 224 224 222 221 220 218 216 215 214 211 202 193 188 188 192 194 197 199 201 200 199 197 195 192 189 186 182 182
291 286 281 275 270 264 259 254 247 240 232 225 220 218 219 222 223 223 221 219 218 218 218 218 222 226 229 229 228 227 225 223 221 220 219 220 223 224 224 224 222 222 223 223 223 222 220 218 216 215 213 207 198 189 185 190 194 198 201 201 200 197 196 194 193 190 187 184 183
286 282 277 272 269 265 262 257 251 243 235 229 226 226 226 228 228 227 223 219 216 214 214 216 219 222 225 227 227 228 227 225 223 221 221 221 221 223 224 224 223 222 222 222 223 223 221 220 217 216 214 211 203 192 183 187 192 197 201 203 200 198 196 195 193 191 188 186 185
283 278 273 269 267 266 265 261 255 247 239 235 234 233 233 233 233 231 226 219 215 212 212 214 216 219 222 223 225 226 227 227 225 223 222 221 221 222 223 223 223 221 220 221 222 223 223 221 219 217 215 213 208 196 185 186 190 196 200 202 201 199 198 197 195 192 189 187 187
281 276 271 268 267 266 266 266 261 254 246 242 241 240 238 237 235 232 228 220 215 213 214 215 217 219 222 223 224 225 227 229 228 225 222 220 219 221 223 224 224 221 219 220 221 222 223 222 221 218 216 215 211 200 188 186 191 195 198 200 200 200 199 199 197 194 190 187 187
282 277 273 271 271 270 270 269 266 261 254 248 247 245 243 240 237 234 229 221 215 214 215 216 217 219 222 223 224 225 226 227 227 226 223 219 218 220 222 224 224 221 219 219 220 221 221 222 221 219 216 214 212 203 193 188 191 194 196 198 200 200 198 198 198 195 191 188 188
288 282 278 276 276 275 274 272 270 266 261 255 252 249 246 244 241 236 229 218 215 215 215 215 216 218 219 220 222 223 224 224 225 225 224 221 219 220 222 224 223 220 218 219 219 220 220 220 220 218 216 214 211 204 196 190 191 192 194 198 200 199 196 195 197 196 194 191 190
296 291 286 282 281 280 278 275 271 267 263 260 257 253 249 246 244 237 228 218 216 216 216 215 216 217 218 218 220 222 223 223 223 224 224 223 220 220 222 224 222 219 216 217 218 218 219 218 218 217 215 213 209 203 198 193 192 192 193 196 198 197 195 194 196 197 196 195 194
299 297 293 288 285 283 281 277 272 268 264 263 261 258 254 248 245 238 228 219 218 217 217 216 217 217 217 216 219 222 223 223 222 222 223 224 222 221 221 223 222 218 214 214 216 217 217 217 217 216 214 213 207 202 199 197 195 194 194 194 194 194 193 193 195 197 198 198 197
298 296 294 290 287 283 280 277 273 269 266 264 262 260 257 251 247 240 232 224 221 220 219 219 219 217 215 214 218 221 223 222 221 221 222 223 223 222 222 223 222 218 213 212 214 215 216 215 215 214 214 212 205 200 198 198 199 198 197 195 193 192 192 192 194 195 196 197 199
296 294 291 288 284 280 277 274 272 269 267 264 262 260 258 254 249 242 233 228 224 222 221 222 220 217 214 213 217 220 222 223 221 220 220 221 223 223 222 223 221 217 212 210 212 213 214 214 214 213 212 210 202 197 196 198 201 202 202 199 195 192 190 190 192 194 194 193 197